Regional Weather Roundup
Issued by NWS Glasgow, MT

Home | Current Version | Previous Version | Text Only | Print | Product List | Glossary On
Versions: 1 2 3 4 5 6 7 8 9 10 11 12 13 14 15 16 17 18 19 20 21 22 23 24 25 26 27
000
ASUS45 KGGW 250715
RWRGGW
HOURLY WEATHER ROUNDUP FOR NORTHEAST MONTANA
NATIONAL WEATHER SERVICE GLASGOW MONTANA
100 AM MDT FRI APR 25 2014

NOTE: "FAIR" INDICATES FEW OR NO CLOUDS BELOW 12,000 FEET WITH NO
SIGNIFICANT WEATHER AND/OR OBSTRUCTIONS TO VISISBILITY.

NORTHEAST MONTANA


CITY           SKY/WX    TMP DP  RH WIND       PRES   REMARKS
GLASGOW        PTCLDY    44  33  65 W6        29.72S
PLENTYWOOD       N/A     39  28  64 NE2         N/A
WOLF POINT     CLOUDY    45  29  53 SW5       29.72S
JORDAN           N/A     36  31  82 W7        29.75R
WINNETT          N/A     38  34  85 SW2         N/A
SIDNEY         MOCLDY    48  28  46 W12       29.74R
GLENDIVE       CLOUDY    43  32  65 W7        29.76S
SCOBEY           N/A     29  20  69 NW5       29.72R

FORT PECK REPORTS


CITY           SKY/WX    TMP DP  RH WIND       PRES   REMARKS
FORT PECK        N/A     46  32  58 S5          N/A
THE PINES        N/A     46  32  58 SW5         N/A

SOUTHEAST MONTANA


CITY           SKY/WX    TMP DP  RH WIND       PRES   REMARKS
BILLINGS       CLEAR     45  34  65 SW12      29.80S
MILES CITY     CLEAR     41  34  76 S7        29.76F
BAKER          MOCLDY    40  31  70 S3        29.77F
LIVINGSTON     LGT RAIN  38  36  92 NW13      29.83R

CENTRAL MONTANA


CITY           SKY/WX    TMP DP  RH WIND       PRES   REMARKS
HAVRE          PTCLDY    40  35  83 SW7       29.72R
LEWISTOWN      CLEAR     37  29  72 S5        29.78R
GREAT FALLS    PTCLDY    43  29  57 SW14      29.75S
CUT BANK       PTCLDY    41  32  70 W16       29.74R
HELENA         CLOUDY    45  32  60 CALM      29.82S
BUTTE          PTCLDY    36  33  89 CALM      29.86S
BOZEMAN        CLOUDY    41  37  86 CALM      29.85S

WESTERN MONTANA


CITY           SKY/WX    TMP DP  RH WIND       PRES   REMARKS
MISSOULA       MOCLDY    43  34  70 SE12      29.87S
KALISPELL      NOT AVBL

NORTH DAKOTA


CITY           SKY/WX    TMP DP  RH WIND       PRES   REMARKS
WILLISTON      MOCLDY    34  28  79 CALM      29.71S
DICKINSON      MOCLDY    40  28  62 W7        29.73F
MINOT          CLEAR     38  31  76 SW12      29.70R
BISMARCK       MOCLDY    37  28  70 W3        29.76R

SOUTHERN SASKATCHEWAN


CITY           SKY/WX    TMP DP  RH WIND       PRES   REMARKS
REGINA         CLEAR     34  34 100 SW6       29.73R
ESTEVAN        PTCLDY    34  32  93 NE6       29.72R
SWIFT CURRENT  MOCLDY    30  30 100 S7        29.72R




USA.gov is the U.S. government's official web portal to all federal, state and local government web resources and services.